EW5526 Weather Reports


time (UTC)temp
C
wind
direction
speed
KPH
gust
KPH
rain 1hr
cm
rain 24hr
cm
rain mn
cm
humidity
%
barometer
mb
20260507150027 22 284 11.3 11.3 0.00 0.00 0.00 46 1009.3
20260507143027 23 213 4.8 6.4 0.00 0.00 0.00 45 1010.1
20260507140027 24 220 16.1 17.7 0.00 0.00 0.00 46 1010.1
20260507120025 22 319 1.6 6.4 0.00 0.00 0.00 48 1010.2
20260507113024 22 315 3.2 8.0 0.00 0.00 0.00 47 1010.4
20260507110024 22 360 8.0 12.9 0.00 0.00 0.00 49 1010.5
20260507103024 22 146 3.2 8.0 0.00 0.00 0.00 49 1011.0
20260507100023 23 90 1.6 8.0 0.00 0.00 0.00 46 1011.0
20260507093022 22 16 3.2 11.3 0.00 0.00 0.00 46 1010.6
20260507090021 22 74 4.8 6.4 0.00 0.00 0.00 44 1010.8
20260507083021 22 90 4.8 14.5 0.00 0.00 0.00 45 1010.8
20260507080020 21 355 1.6 4.8 0.00 0.00 0.00 46 1010.5
20260507073020 20 341 4.8 12.9 0.00 0.00 0.00 46 1010.7
20260507070019 20 26 4.8 8.0 0.00 0.00 0.00 46 1011.0
20260507063019 18 28 4.8 14.5 0.00 0.00 0.00 47 1010.6
20260507060048 17 5 14.5 16.1 0.00 0.00 0.00 47 1010.1
20260507053047 17 360 4.8 12.9 0.00 0.00 0.00 48 1009.6
20260507050017 17 17 16.1 16.1 0.00 0.00 0.00 46 1009.2
20260507043047 16 9 14.5 22.5 0.00 0.00 0.00 48 1009.0
20260507040046 17 5 8.0 16.1 0.00 0.00 0.00 44 1009.0
20260507033045 17 35 17.7 17.7 0.00 0.00 0.00 44 1009.3
20260507030045 17 24 1.6 8.0 0.00 0.00 0.00 47 1009.8
20260507023044 17 14 6.4 14.5 0.00 0.00 0.00 48 1010.4
20260507020044 17 43 4.8 8.0 0.00 0.00 0.00 52 1010.7
20260507013043 16 24 3.2 14.5 0.00 0.00 0.00 57 1010.9
20260507010043 16 30 9.7 9.7 0.00 0.00 0.00 55 1011.2
20260507000042 18 32 4.8 9.7 0.00 0.00 0.00 56 1011.6
20260506233041 17 99 3.2 12.9 0.00 0.00 0.00 57 1012.2
20260506230041 17 21 1.6 4.8 0.00 0.00 0.00 68 1012.4
20260506223040 17 19 0.0 4.8 0.00 0.00 0.00 69 1012.9
20260506220040 17 17 4.8 8.0 0.00 0.00 0.00 68 1012.7
20260506213040 17 17 4.8 8.0 0.00 0.00 0.00 66 1012.6
20260506210039 16 321 3.2 4.8 0.00 0.00 0.00 72 1013.0
20260506200038 17 344 0.0 0.0 0.00 0.00 0.00 64 1013.0
20260506193038 18 344 0.0 3.2 0.00 0.00 0.00 55 1012.4
20260506190039 19 307 3.2 12.9 0.00 0.00 0.00 53 1011.6
20260506183037 20 11 3.2 6.4 0.00 0.00 0.00 53 1011.4
20260506180036 18 348 3.2 4.8 0.00 0.00 0.00 62 1012.0
20260506173035 19 39 0.0 3.2 0.00 0.00 0.00 70 1012.0
20260506170035 20 36 0.0 0.0 0.00 0.00 0.00 68 1012.3